| time (UTC) | temp F | wind direction | speed MPH | gust MPH | rain 1hr in | rain 24hr in | rain mn in | humidity % | barometer mb |
| 20260510174603 | 63 | 31 | 4.0 | 7.0 | 0.01 | 0.01 | 0.01 | 49 | 1017.1 |
| 20260510173052 | 63 | 23 | 1.0 | 12.0 | 0.01 | 0.01 | 0.01 | 58 | 1017.3 |
| 20260510171604 | 63 | 285 | 1.0 | 8.0 | 0.00 | 0.00 | 0.00 | 53 | 1017.3 |
| 20260510170053 | 62 | 19 | 3.0 | 9.0 | 0.00 | 0.00 | 0.00 | 51 | 1017.3 |
| 20260510164605 | 62 | 22 | 2.0 | 9.0 | 0.00 | 0.00 | 0.00 | 52 | 1017.5 |
| 20260510163137 | 62 | 0 | 2.0 | 6.0 | 0.00 | 0.00 | 0.00 | 49 | 1017.6 |
| 20260510161552 | 61 | 17 | 2.0 | 9.0 | 0.00 | 0.00 | 0.00 | 51 | 1017.5 |
| 20260510160056 | 61 | 9 | 3.0 | 11.0 | 0.00 | 0.00 | 0.00 | 56 | 1017.4 |
| 20260510154555 | 60 | 5 | 2.0 | 8.0 | 0.00 | 0.00 | 0.00 | 52 | 1017.1 |
| 20260510153102 | 61 | 21 | 2.0 | 5.0 | 0.00 | 0.00 | 0.00 | 57 | 1017.0 |
| 20260510151625 | 60 | 38 | 1.0 | 4.0 | 0.00 | 0.00 | 0.00 | 54 | 1016.8 |
| 20260510150100 | 60 | 32 | 1.0 | 7.0 | 0.00 | 0.00 | 0.00 | 55 | 1016.7 |
| 20260510144614 | 59 | 0 | 1.0 | 8.0 | 0.00 | 0.00 | 0.00 | 56 | 1016.6 |
| 20260510143105 | 58 | 58 | 3.0 | 8.0 | 0.00 | 0.00 | 0.00 | 59 | 1016.2 |
| 20260510141558 | 57 | 38 | 2.0 | 8.0 | 0.00 | 0.00 | 0.00 | 58 | 1016.0 |
| 20260510140053 | 57 | 53 | 2.0 | 6.0 | 0.00 | 0.00 | 0.00 | 62 | 1016.0 |
| 20260510134558 | 56 | 103 | 2.0 | 8.0 | 0.00 | 0.00 | 0.00 | 63 | 1015.8 |
| 20260510133058 | 54 | 0 | 2.0 | 5.0 | 0.00 | 0.00 | 0.00 | 64 | 1015.9 |
| 20260510131559 | 54 | 15 | 2.0 | 5.0 | 0.00 | 0.00 | 0.00 | 66 | 1015.6 |
| 20260510130054 | 53 | 17 | 2.0 | 5.0 | 0.00 | 0.00 | 0.00 | 65 | 1015.5 |
| 20260510124559 | 53 | 29 | 1.0 | 4.0 | 0.00 | 0.00 | 0.00 | 66 | 1015.5 |
| 20260510123052 | 53 | 11 | 1.0 | 3.0 | 0.00 | 0.00 | 0.00 | 66 | 1015.1 |
| 20260510121551 | 52 | 0 | 0.0 | 2.0 | 0.00 | 0.00 | 0.00 | 72 | 1014.9 |
| 20260510120051 | 52 | 0 | 0.0 | 1.0 | 0.00 | 0.00 | 0.00 | 72 | 1014.7 |
| 20260510114552 | 52 | 0 | 0.0 | 2.0 | 0.00 | 0.01 | 0.00 | 70 | 1014.4 |
| 20260510113047 | 51 | 0 | 0.0 | 1.0 | 0.00 | 0.01 | 0.00 | 69 | 1014.2 |
| 20260510111551 | 52 | 11 | 0.0 | 2.0 | 0.00 | 0.01 | 0.00 | 70 | 1013.8 |
| 20260510110052 | 52 | 360 | 0.0 | 2.0 | 0.00 | 0.01 | 0.00 | 68 | 1013.4 |
| 20260510104553 | 52 | 11 | 1.0 | 3.0 | 0.00 | 0.01 | 0.00 | 73 | 1013.4 |
| 20260510103053 | 53 | 0 | 1.0 | 4.0 | 0.00 | 0.01 | 0.00 | 71 | 1013.1 |
| 20260510101556 | 53 | 352 | 1.0 | 4.0 | 0.00 | 0.01 | 0.00 | 71 | 1012.8 |
| 20260510100109 | 53 | 11 | 0.0 | 1.0 | 0.00 | 0.01 | 0.00 | 73 | 1012.4 |
| 20260510094605 | 54 | 334 | 1.0 | 5.0 | 0.00 | 0.01 | 0.00 | 72 | 1012.2 |
| 20260510093058 | 54 | 352 | 2.0 | 8.0 | 0.00 | 0.01 | 0.00 | 75 | 1011.9 |
| 20260510091557 | 55 | 360 | 4.0 | 8.0 | 0.00 | 0.01 | 0.00 | 76 | 1011.6 |
| 20260510090058 | 55 | 5 | 5.0 | 10.0 | 0.00 | 0.01 | 0.00 | 75 | 1011.3 |
| 20260510084611 | 56 | 350 | 2.0 | 5.0 | 0.00 | 0.01 | 0.00 | 76 | 1011.1 |
| 20260510083053 | 56 | 346 | 2.0 | 9.0 | 0.00 | 0.01 | 0.00 | 74 | 1010.8 |
| 20260510081555 | 57 | 348 | 3.0 | 8.0 | 0.00 | 0.01 | 0.00 | 73 | 1010.8 |
| 20260510080048 | 57 | 338 | 4.0 | 10.0 | 0.00 | 0.01 | 0.00 | 74 | 1010.5 |
| 20260510074552 | 58 | 349 | 1.0 | 5.0 | 0.00 | 0.01 | 0.00 | 78 | 1010.2 |
| 20260510073104 | 59 | 319 | 0.0 | 2.0 | 0.00 | 0.01 | 0.00 | 76 | 1010.3 |
| 20260510071553 | 60 | 0 | 0.0 | 5.0 | 0.00 | 0.01 | 0.00 | 73 | 1010.1 |
| 20260510070055 | 60 | 0 | 1.0 | 4.0 | 0.00 | 0.01 | 0.00 | 72 | 1010.1 |
| 20260510064553 | 61 | 0 | 0.0 | 4.0 | 0.00 | 0.01 | 0.00 | 72 | 1010.2 |
| 20260510063057 | 61 | 0 | 0.0 | 7.0 | 0.00 | 0.01 | 0.00 | 72 | 1010.1 |
| 20260510061557 | 61 | 264 | 0.0 | 8.0 | 0.00 | 0.01 | 0.00 | 73 | 1010.1 |
| 20260510060055 | 60 | 190 | 1.0 | 10.0 | 0.00 | 0.01 | 0.00 | 77 | 1010.1 |
| 20260510054551 | 58 | 0 | 0.0 | 2.0 | 0.00 | 0.01 | 0.00 | 77 | 1009.9 |
| 20260510053051 | 58 | 0 | 0.0 | 2.0 | 0.00 | 0.01 | 0.00 | 76 | 1009.8 |
| 20260510051553 | 60 | 0 | 0.0 | 1.0 | 0.00 | 0.01 | 0.00 | 75 | 1009.7 |
| 20260510050052 | 61 | 0 | 0.0 | 1.0 | 0.00 | 0.01 | 0.00 | 72 | 1009.8 |
| 20260510044556 | 61 | 339 | 0.0 | 3.0 | 0.00 | 0.01 | 0.00 | 71 | 1009.8 |
| 20260510043104 | 61 | 123 | 0.0 | 2.0 | 0.00 | 0.01 | 0.00 | 72 | 1009.3 |
| 20260510041554 | 61 | 0 | 0.0 | 4.0 | 0.00 | 0.01 | 0.00 | 72 | 1009.4 |
| 20260510040100 | 61 | 171 | 0.0 | 3.0 | 0.00 | 0.01 | 0.00 | 72 | 1009.2 |
| 20260510034552 | 61 | 0 | 0.0 | 3.0 | 0.00 | 0.01 | 0.01 | 73 | 1009.2 |
| 20260510033115 | 60 | 0 | 0.0 | 2.0 | 0.00 | 0.01 | 0.01 | 73 | 1009.0 |
| 20260510031558 | 61 | 0 | 0.0 | 1.0 | 0.00 | 0.01 | 0.01 | 72 | 1009.0 |
| 20260510030059 | 61 | 0 | 0.0 | 3.0 | 0.00 | 0.01 | 0.01 | 73 | 1009.1 |
| 20260510024552 | 61 | 151 | 0.0 | 2.0 | 0.00 | 0.01 | 0.01 | 72 | 1009.0 |
| 20260510023049 | 62 | 0 | 0.0 | 3.0 | 0.00 | 0.01 | 0.01 | 71 | 1008.9 |
| 20260510021554 | 62 | 0 | 0.0 | 1.0 | 0.00 | 0.01 | 0.01 | 70 | 1008.7 |
| 20260510020056 | 63 | 0 | 0.0 | 1.0 | 0.00 | 0.01 | 0.01 | 68 | 1008.5 |
| 20260510014555 | 64 | 0 | 0.0 | 1.0 | 0.00 | 0.01 | 0.01 | 66 | 1008.1 |
| 20260510013050 | 65 | 0 | 0.0 | 2.0 | 0.00 | 0.01 | 0.01 | 65 | 1007.8 |
| 20260510011600 | 65 | 0 | 0.0 | 5.0 | 0.00 | 0.01 | 0.01 | 62 | 1007.7 |
| 20260510010104 | 66 | 0 | 0.0 | 5.0 | 0.00 | 0.01 | 0.01 | 62 | 1007.4 |
| 20260510004552 | 66 | 0 | 0.0 | 6.0 | 0.00 | 0.01 | 0.01 | 61 | 1007.4 |
| 20260510003053 | 67 | 0 | 0.0 | 4.0 | 0.00 | 0.01 | 0.01 | 58 | 1007.3 |
| 20260510001553 | 68 | 352 | 0.0 | 10.0 | 0.00 | 0.01 | 0.01 | 56 | 1007.1 |
| 20260510000106 | 68 | 0 | 2.0 | 12.0 | 0.00 | 0.01 | 0.01 | 56 | 1007.0 |
| 20260509234559 | 68 | 0 | 0.0 | 10.0 | 0.00 | 0.01 | 0.01 | 57 | 1006.9 |
| 20260509233055 | 68 | 69 | 1.0 | 12.0 | 0.00 | 0.01 | 0.01 | 58 | 1006.7 |
| 20260509231550 | 69 | 232 | 3.0 | 11.0 | 0.00 | 0.01 | 0.01 | 57 | 1006.8 |
| 20260509230053 | 70 | 264 | 1.0 | 14.0 | 0.00 | 0.01 | 0.01 | 56 | 1006.7 |
| 20260509224558 | 71 | 267 | 2.0 | 6.0 | 0.00 | 0.01 | 0.01 | 56 | 1006.5 |
| 20260509223100 | 71 | 207 | 2.0 | 7.0 | 0.00 | 0.01 | 0.01 | 53 | 1006.4 |
| 20260509221559 | 71 | 258 | 2.0 | 13.0 | 0.00 | 0.01 | 0.01 | 53 | 1006.4 |
| 20260509220053 | 72 | 313 | 2.0 | 10.0 | 0.00 | 0.01 | 0.01 | 54 | 1006.3 |
| 20260509214552 | 71 | 196 | 1.0 | 11.0 | 0.00 | 0.01 | 0.01 | 54 | 1006.5 |
| 20260509213058 | 72 | 232 | 2.0 | 10.0 | 0.00 | 0.01 | 0.01 | 54 | 1006.5 |
| 20260509211554 | 72 | 238 | 1.0 | 15.0 | 0.00 | 0.01 | 0.01 | 58 | 1006.6 |
| 20260509210107 | 71 | 155 | 2.0 | 11.0 | 0.00 | 0.01 | 0.01 | 55 | 1006.7 |
| 20260509204601 | 71 | 105 | 1.0 | 16.0 | 0.00 | 0.01 | 0.01 | 57 | 1006.7 |
| 20260509203059 | 72 | 83 | 2.0 | 10.0 | 0.00 | 0.01 | 0.01 | 61 | 1006.9 |
| 20260509201558 | 72 | 113 | 2.0 | 9.0 | 0.00 | 0.01 | 0.01 | 58 | 1007.3 |
| 20260509200105 | 70 | 219 | 3.0 | 9.0 | 0.00 | 0.01 | 0.01 | 58 | 1007.4 |
| 20260509194554 | 71 | 0 | 2.0 | 9.0 | 0.00 | 0.01 | 0.01 | 64 | 1007.5 |
| 20260509193057 | 70 | 134 | 2.0 | 12.0 | 0.00 | 0.01 | 0.01 | 61 | 1007.5 |
| 20260509191549 | 70 | 195 | 3.0 | 16.0 | 0.00 | 0.01 | 0.01 | 57 | 1007.7 |
| 20260509190053 | 69 | 167 | 3.0 | 13.0 | 0.00 | 0.01 | 0.01 | 57 | 1007.7 |
| 20260509184602 | 68 | 205 | 3.0 | 13.0 | 0.00 | 0.01 | 0.01 | 62 | 1007.9 |
| 20260509183057 | 68 | 209 | 3.0 | 11.0 | 0.00 | 0.01 | 0.01 | 61 | 1007.9 |
| 20260509181619 | 68 | 209 | 2.0 | 11.0 | 0.00 | 0.01 | 0.01 | 63 | 1008.0 |
| 20260509180052 | 67 | 264 | 3.0 | 11.0 | 0.00 | 0.01 | 0.01 | 68 | 1008.1 |